Saint-Sauveur, Quebec

7:09 AM EDT on June 28, 2017 (GMT -0400)
Saint-Sauveur | | Change Station

Elev 920 ft 45.88 °N, 74.19 °W | Updated 27 seconds ago

Partly Cloudy
Partly Cloudy
53.1 °F
Feels Like 53.1 °F
N
0.0
Wind Variable Wind from West

Today
High -- | Low -- °F
--% Chance of Precip.
Yesterday
High -- | Low -- °F
Precip. -- in
Pressure 29.98 in
Visibility 4.0 miles
Clouds Mostly Cloudy 200 ft
Mostly Cloudy 6000 ft
Overcast 10000 ft
Dew Point 51 °F
Humidity 95%
Rainfall 0.00 in
Snow Depth Not available.
5:08 AM 8:51 PM
Waxing Crescent, 24% visible
METAR CYMX 281100Z 26004KT 210V300 4SM BR BKN002 BKN060 OVC100 12/12 A2996 RMK SF6SC1AC1 SLP150
Pressure 29.98 in
Visibility 4.0 miles
Clouds Mostly Cloudy 200 ft
Mostly Cloudy 6000 ft
Overcast 10000 ft
Dew Point 51 °F
Humidity 95%
Rainfall 0.00 in
Snow Depth Not available.
5:08 AM 8:51 PM
Waxing Crescent, 24% visible
METAR CYMX 281100Z 26004KT 210V300 4SM BR BKN002 BKN060 OVC100 12/12 A2996 RMK SF6SC1AC1 SLP150

Get Severe Weather Alerts

Thanks for signing up!

Be on the lookout for a verification email in your inbox.

You'll start receiving the daily forecast at 6 AM.

×

10-Day Weather Forecast

Almanac

Astronomy

Jun. 28, 2017 Rise Set
Actual Time
Civil Twilight
Nautical Twilight
Astronomical Twilight
Moon
Length of Visible Light
Length of Day
Tomorrow will be .
, % of the Moon is Illuminated

Today's Extremes

Country Highs Country Lows

Community

WunderPhotos

Category 6

Welcome to Category 6. This is the collective home for Weather Underground's featured writeups by Dr. Jeff Masters (right), Bob Henson (left), Chris Burt, and other regular contributors.

Nearby

Air Quality

  Air Quality AQ Index Pollutant
Not available.

Snow Depth

Station Depth Elevation

Earthquake Activity

City Distance Mag. Time & Date
Minimum magnitude displayed is 2.5.

Coastal Water Temperatures

Place Temperature

Stations

Nearby Weather Stations

Station Location Temp. Windchill Dew Point Humidity Wind Precip. Elev Updated Type
                   

Watches & Warnings

There are currently no watches in effect.